Погода в Ноглики

Погода в Ноглики : погода сейчас, прогноз погоды и архив. Всё, что Вы хотите узнать о погоде в Ноглики!

Хотите узнать прогноз погоды в Ноглики? Тогда Вам сюда: Погода в Ноглики

Поиск расширенной информации на нашем сайте:

Другие новости

Новости СМИ2

Главная страница сайта

Новости сайта

03.07.2017

Напоминаем, что на нашем специализированном сайте Метеоцентр.Азия вы можете получить высокодетализированные автоматические прогнозы погоды по пунктам России, СНГ и мира в авиационном формате (включающие направление и скорость ветра, видимость, явления погоды, количество и форму облачности, нижнюю и верхнюю границу облачности).

Рекомендуем: подбор тура пегас тур

Погода в Ноглики - сегодня

Время (UTC), дата Ветер
(°,м/с) 
Видим.   Явления Облачность Т
(°С)
Тd
(°С)
f(%) Тe
(°С)
Pmin
(гПа)
dP
(гПа)
Po
(мм)
O2
(г/м3)
Тmin Tmax R s Состояние
почвы
15 15.09.17 240 (ЮЗ) 6-6{07}  10 км    4/3 600 м средняя 
[Sc|Ac trans]
+11.4 +6.1 70 +10  1014.4  -0.8  757  292           
18 15.09.17 240 (ЮЗ) 6-8{10}  10 км    4/3 600 м средняя 
[Sc|Ac trans]
+11.6 +8.6 82 +10  1014  -0.4  757  291           
21 15.09.17 230 (ЮЗ) 5-8{10}  20000 м    1/1 600 м 
[Sc]
+11.6 +9 84 +11  1014.4  0.4  757  291  +10.8        сухая 
00 16.09.17 260 (З) 6-12{12}  20000 м    ясно 
+16.7 +10.7 68 +18  1014.2  -0.1  757  286           
09 16.09.17 260 (З) 3-6{10}  20000 м    5/0 верхняя 
[Ci sp]
+17 +11.3 69 +20  1014  0.6  757  285    +22.4       
12 16.09.17 270 (З) 3-5{07}  10 км    ясно 
+14.1 +9.9 76 +15  1015.1  1.1  758  289           
15 16.09.17 250 (З) 3-6{07}  10 км    ясно 
+13 +4 54 +13  1015.1  758  291           
18 16.09.17 230 (ЮЗ) 3-6{06}  10 км    ясно 
+12.7 +7.6 71 +13  1014.8  -0.3  758  290           
21 16.09.17 240 (ЮЗ) 3-6{06}  20000 м    6/1 600 м верхняя 
[Sc|Ci fib]
+10.8 +7.7 81 +10  1015.6  0.7  758  293  +10        сухая 
09 17.09.17 230 (ЮЗ) 2-3{03}  20000 м    4/0 верхняя 
[Ci fib]
+17.7 +12.1 70 +23  1013.5  0.2  757  284    +22.8       
12 17.09.17 170 (Ю) 2-3{05}  10 км    ясно 
+13.7 +9.6 76 +14  1013.7  0.1  757  289           
15 17.09.17 170 (Ю) 2-3{03}  10 км    ясно 
+10.2 +7.7 84 +10  1013.4  -0.4  757  293           
21 17.09.17 200 (Ю) 1-2{03}  20000 м    9/0 верхняя 
[Ci fib]
+7 +5.7 91 +8  1011.7  -0.6  755  296  +6.5        влажная 
09 18.09.17 150 (ЮВ) 6-10{13}  10 км    9/4 600 м средняя 
[Sc|Ac trans]
+11.6 +8.6 82 +10  1006.4  -0.7  751  289    +18.6       
18 18.09.17 070 (В) 10-15{17}  2000 м  слаб. ливневой дождь  10/10 210 м кучево-дожд. 
[Cb cap]
+9.6 +9.4 99 +8  995.2  -5.9  743  287           
21 18.09.17 060 (СВ) 10-15{17}  1000 м  ливневой дождь  10/10 150 м кучево-дожд. 
[Cb cap]
+9.3 +9.1 99 +7  990.7  -4.5  740  287  +9.1      мокрая 
00 19.09.17 090 (В) 7-12{16}  2000 м  в посл. час ливневой дождь  10/10 120 м кучево-дожд. 
[Cb cap]
+10.7 +10.5 99 +11  987.7  -3  737  284           
03 19.09.17 030 (СВ) 8-12{13}  2000 м  дымка  10/10 150 м кучево-дожд. 
[Cb cap]
+11 +10.4 96 +11  985.6  -2.1  736  283           
06 19.09.17 010 (С) 8-14{14}  2000 м  слаб. ливневой дождь  10/10 120 м кучево-дожд. 
[Cb cap]
+11 +10.8 99 +12  984.1  -1.4  735  283           
09 19.09.17 360 (С) 7-12{14}  2000 м  слаб. ливневой дождь  10/10 180 м кучево-дожд. 
[Cb cap]
+11.3 +10.9 97 +13  984.7  0.5  735  282    +11.3  19     
12 19.09.17 350 (С) 6-13{13}  4000 м  слаб. ливневой дождь  10/10 180 м кучево-дожд. 
[Cb cap]
+11.2 +10.6 96 +12  986.2  1.5  736  283           
15 19.09.17 340 (С) 4-8{13}  4000 м  слаб. ливневой дождь  10/10 210 м кучево-дожд. 
[Cb cap]
+11 +10.6 97 +12  987.1  0.9  737  283           
18 19.09.17 320 (СЗ) 3-7{09}  4000 м  слаб. ливневой дождь  10/10 270 м кучево-дожд. 
[Cb cap]
+11 +10.4 96 +13  988.6  1.5  738  284           
21 19.09.17 310 (СЗ) 4-9{09}  10 км  в посл. час ливневой дождь  10/10 420 м кучево-дожд. 
[Cb cap]
+11 +10.4 96 +12  990  1.4  739  284  +10.5    11    влажная 
00 20.09.17 310 (СЗ) 4-8{09}  20000 м  слаб. ливневой дождь  10/10 600 м кучево-дожд. 
[Cb cap]
+12.5 +11 91 +15  991.4  1.4  740  283           
Время (UTC), дата Ветер
(°,м/с) 
Видим.   Явления Облачность Т
(°С)
Тd
(°С)
f(%) Тe
(°С)
Pmin
(гПа)
dP
(гПа)
Po
(мм)
O2
(г/м3)
Тmin Tmax R s Состояние
почвы

Для получения пояснительной информации подведите курсор к названию столбца.

ПОГОДА в Ноглики - архив

Всё, что Вы хотите узнать о погоде в Ноглики - удобно и подробно!

Выберите нужную дату (начиная с 1 января 2015* года) и нажмите кнопку "Найти".
Будут отображены архивные сводки погоды по пункту Ноглики, начиная с указанной даты.


Отображать данные в формате CSV (для использования в таблицах Excel)


Внимание! Наш архив погоды предназначен исключительно для личного некоммерческого использования в познавательных целях. Если Вам необходимы официальные справки о состоянии погоды (для производственных, юридических, коммерческих и т.п. целей), обращайтесь в органы Росгидромета.

*Примечание: данная дата относится к архиву по метеостанциям СССР (Россия, СНГ, Балтия).
Архив по метеостанциям Зарубежной Европы и Азии (кроме Китая) хранится 10 дней, по другим регионам земного шара (Китай, Африка, Америка, Австралия, Океания) - 1 день.

Ноглики - район местоположения метеостанции


Название, широта, долгота, высота метеостанции:
Ноглики 51.9°ш. 143.1°д. 34 м над ур. моря [Российская Федерация]

Дополнительная информация

В oтличие oт бoльшинства пoгoдных сайтoв мы публикуем пoдрoбную метеoинфoрмацию в детальнoм прoфессиoнальнoм фoрмате.

Характеристики температуры и влажнoсти вoздуха измеряются на высoте 2 м в тени вдали oт зданий и деревьев.
Скoрoсть ветра измеряется на высoте 10 м (на урoвне рoста челoвека скoрoсть ветра ниже в 1.5-2 раза). Если метеoстанция нахoдится в гoрoде или в лесу, тo скoрoсть ветра занижена на 2-4 м/с пo сравнению с oткрытым местoм. Скoрoсть ветра над акватoриями крупных рек и oзёр, а также на вершинах хoлмoв на 2-5 м/с выше, чем в oбычных услoвиях.
Атмoсфернoе давление в разных тoчках местнoсти мoжет значительнo oтличаться oт давления на метеoстанции, в зависимoсти oт услoвий рельефа (при пoдъёме на 10 м давление пoнижается примернo на 1 мм рт.ст.).